Погода в Аннаполисе

США     38°58′41″N   76°29′34″W
темп.,
°C
ветер,
м/с
пор.,
м/с
влажн.,
%
обл.,
%
осадки,
мм/ч
давл.,
гПа
погр.,
м
6 мая, чт
чт623:00+14сз713600 0.0 1014740
02:00+11сз711621 0.0 1015970
05:00+10сз510594 0.0 1016779
08:00+10ссз69590 0.0 1018973
11:00+13с56495 0.0 10181305
14:00+16св34453 0.0 10161147
17:00+16вюв2348100 0.0 1015920
20:00+12ююз2260100 0.0 101550
7 мая, пт
пт723:00+12ююз226062 0.0 101528
02:00+10юз11665 0.0 101317
05:00+10ююв227415 0.0 101224
08:00+12вюв2369100 0.0 1011241
11:00+14юв2358100 0.0 1010740
14:00+15ююз2360100 0.3 1008921
17:00+10зсз5891100 4.1 1008620
20:00+10ссз5993100 13.0 1010723
8 мая, сб
сб823:00+9сз479087 1.5 1010414
02:00+7зсз510874 1.5 1010493
05:00+5зсз48872 0.0 1010349
08:00+7сз597960 0.0 1013609
11:00+12ссз6955100 0.0 10131544
14:00+14сз685087 0.4 10131763
17:00+14з585151 0.1 10141399
20:00+12з510621 0.1 1016379
9 мая, вс
вс923:00+10з714620 0.0 1017634
02:00+9зсз5127096 0.0 1018382
05:00+8зсз3675100 0.0 1019140
08:00+10з236392 0.0 1020204
11:00+14ююз3548100 0.0 10201250
14:00+12юз5763100 0.1 1018697
17:00+9ю2388100 1.4 1017224
20:00+9в4691100 2.7 1014307
10 мая, пн
пн1023:00+10в4791100 1.1 1013384
02:00+10вюв2593100 1.1 1010221
05:00+11ююз3695100 0.3 1008197
08:00+14юз51690100 0.9 1008433
11:00+20юз61285100 1.4 1006556
14:00+24юз71261100 1.7 10051145
17:00+22юз71370100 0.5 10041136
20:00+14зсз916780 3.3 1011864